Location: LDNL
(36.4545°S, 141.6685°E)
Time: 12:36:51
(UTC+10:00)

A-11 Canister half - Pass Details

Date: 10 August 2022
Orbit: 1524 x 1684 km, 47.3° (Epoch: 26 September)

Event Time Altitude Azimuth Distance (km) Brightness Sun altitude
Rises 00:29:01 0° 237° (WSW) 4,715 - -69.2°
Reaches altitude 10° 00:32:02 10° 237° (WSW) 3,743 - -69.2°
Maximum altitude 00:41:35 88° 145° (SE) 1,590 - -69.3°
Drops below altitude 10° 00:51:24 10° 55° (NE) 3,843 - -69.1°
Sets 00:54:32 0° 55° (NE) 4,846 - -69.0°
